sat.trackr.live / text

‹ back to catalog

STARLINK-4018

NORAD 52697 · 2022-053AT

PAYLOAD ACTIVE UNKNOWN

§ Identity

Operator
Country
US
Launch date
2022-05-18
Launch site
AFETR
Launch vehicle
Mass (kg)
RCS (m²)

Purposes: comms

External: N2YO · Heavens-Above · Gunter

§ Orbital elements

Epoch: 2026-09-19T23:14:59.398656Z

Period
93.79 min
Inclination
53.1617°
Eccentricity
0.0000848
Mean motion
15.35399452 rev/d
Perigee alt
459.2 km
Apogee alt
460.3 km
Semi-major
6,837.9 km
B*
2.4480e-5
RAAN
350.3892°
Arg perigee
76.5382°
Mean anomaly
283.5716°
Rev number
24,050

§ Raw data

STARLINK-40181 52697U 22053AT  26262.96874304  .00000474  00000+0  24480-4 0  99962 52697  53.1617 350.3892 0000848  76.5382 283.5716 15.35399452240504

JSON: /api/v1/satellites/52697 · /tle

For live sub-satellite position, see the globe view (requires WebGL).

§ Visibility from observer

Set your observer location to see the next 7 days of passes ≥ 10°. The values pass through the URL so the page stays shareable.

No JS? Fill the form by hand. The geolocation button needs JavaScript.